Location: Mount Cross
(36.6390°N, 79.4878°W)
Time: 01:11:20
(UTC+00:00)

Vanguard 2 Rocket - Pass Details

Date: 26 March 2023
Orbit: 554 x 3314 km, 32.9° (Epoch: 08 June)

Event Time Altitude Azimuth Distance (km) Brightness Sun altitude
Rises 02:36:18 0° 266° (W) 4,003 10.8 -35.1°
Reaches altitude 10° 02:38:33 10° 264° (W) 3,300 10.2 -35.5°
Maximum altitude 02:47:13 74° 181° (S) 1,955 8.2 -36.9°
Enters shadow 02:47:25 74° 173° (S) 1,970 8.2 -36.9°
